Mobile, AL

4:54 PM CST on February 22, 2017 (GMT -0600)
Mobile Regional

Weather History for KMOB - December, 2012

Change the Weather History Date:

Tuesday, December 11, 2012

  Actual Average Record
Temperature  
Mean Temperature 44 °F 53 °F  
Max Temperature 48 °F 63 °F 78 °F (2015)
Min Temperature 40 °F 43 °F 22 °F (1957)
Degree Days  
Heating Degree Days 21 12  
Month to date heating degree days 26 125  
Since 1 July heating degree days 339 383  
Cooling Degree Days 0 0  
Month to date cooling degree days 9 8  
Year to date cooling degree days 2706 2511  
Moisture  
Dew Point 36 °F    
Average Humidity 76    
Maximum Humidity 86    
Minimum Humidity 65    
Precipitation  
Precipitation 0.00 in 0.16 in 3.68 in (1983)
Month to date precipitation 0.47 1.77  
Year to date precipitation 66.09 62.86  
Snow  
Snow 0.00 in 0.00 in 0.00 in (2002)
Month to date snowfall 0.0 0.0  
Since 1 July snowfall 0.0 0.0  
Snow Depth 0.00 in    
Sea Level Pressure  
Sea Level Pressure 30.07 in    
Wind  
Wind Speed 11 mph (North)    
Max Wind Speed 16 mph    
Max Gust Speed 21 mph    
Visibility 10 miles    
Events      
T = Trace of Precipitation, MM = Missing Value Source: NWS Daily Summary

Daily Weather History Graph

Daily Weather History Graph

Search for Another Location

Airport or City:

Trip Planner

Search our weather history database for the weather conditions in past years. The results will help you decide how hot, cold, wet, or windy it might be!

Date:

Astronomy

Dec. 11, 2012 Rise Set
Actual Time 6:40 AM CST 4:52 PM CST
Civil Twilight 6:14 AM CST 5:18 PM CST
Nautical Twilight 5:44 AM CST 5:48 PM CST
Astronomical Twilight 5:14 AM CST 6:18 PM CST
Moon 4:38 AM CST (12/11) 3:28 PM CST (12/11)
Length of Visible Light 11h 04m
Length of Day
10h 11m
Waning Crescent, 4% of the Moon is Illuminated
Dec 11
Waning Crescent
Dec 13
New
Dec 19
First Quarter
Dec 28
Full
Jan 4
Last Quarter

Hourly Weather History & Observations

Time (CST) Temp. Windchill Dew Point Humidity Pressure Visibility Wind Dir Wind Speed Gust Speed Precip Events Conditions
12:56 AM 46.9 °F - 43.0 °F 86% 29.95 in 10.0 mi NNW 13.8 mph - N/A   Overcast
1:56 AM 46.9 °F - 41.0 °F 80% 29.96 in 10.0 mi North 9.2 mph - N/A   Overcast
2:28 AM 46.4 °F 41.1 °F 41.0 °F 81% 29.96 in 10.0 mi NNW 11.5 mph - N/A   Overcast
2:52 AM 44.6 °F 38.8 °F 37.4 °F 76% 29.98 in 10.0 mi NNW 11.5 mph - N/A   Overcast
2:56 AM 45.0 °F 39.3 °F 36.0 °F 71% 29.97 in 10.0 mi North 11.5 mph - N/A   Overcast
3:56 AM 44.1 °F 37.7 °F 36.0 °F 73% 29.99 in 10.0 mi North 12.7 mph - N/A   Mostly Cloudy
4:56 AM 42.1 °F 34.9 °F 36.0 °F 79% 29.99 in 10.0 mi NNW 13.8 mph - N/A   Scattered Clouds
5:56 AM 41.0 °F 33.1 °F 35.1 °F 79% 30.02 in 10.0 mi North 15.0 mph - N/A   Overcast
6:08 AM 41.0 °F 33.9 °F 35.6 °F 81% 30.02 in 7.0 mi North 12.7 mph 20.7 mph N/A   Overcast
6:56 AM 41.0 °F 35.2 °F 35.1 °F 79% 30.04 in 7.0 mi North 9.2 mph - N/A   Overcast
7:14 AM 41.0 °F 35.2 °F 35.6 °F 81% 30.05 in 10.0 mi North 9.2 mph - N/A   Overcast
7:56 AM 42.1 °F 35.7 °F 35.1 °F 76% 30.07 in 10.0 mi North 11.5 mph - N/A   Mostly Cloudy
8:56 AM 43.0 °F 36.8 °F 35.1 °F 74% 30.09 in 10.0 mi North 11.5 mph - N/A   Overcast
9:56 AM 45.0 °F 40.1 °F 35.1 °F 68% 30.11 in 10.0 mi NNE 9.2 mph - N/A   Overcast
10:56 AM 46.0 °F 41.0 °F 35.1 °F 66% 30.10 in 10.0 mi NNE 10.4 mph - N/A   Overcast
11:56 AM 46.0 °F 41.9 °F 35.1 °F 66% 30.07 in 10.0 mi North 8.1 mph - N/A   Overcast
12:56 PM 46.0 °F 40.6 °F 35.1 °F 66% 30.06 in 10.0 mi NNE 11.5 mph - N/A   Overcast
1:56 PM 46.0 °F 41.0 °F 35.1 °F 66% 30.06 in 10.0 mi North 10.4 mph - N/A   Overcast
2:56 PM 45.0 °F 39.7 °F 35.1 °F 68% 30.05 in 10.0 mi North 10.4 mph - N/A   Overcast
3:56 PM 44.1 °F 38.1 °F 35.1 °F 71% 30.06 in 10.0 mi North 11.5 mph - N/A   Mostly Cloudy
4:56 PM 43.0 °F 36.8 °F 34.0 °F 71% 30.10 in 10.0 mi North 11.5 mph - N/A   Mostly Cloudy
5:56 PM 42.1 °F 36.6 °F 34.0 °F 73% 30.13 in 10.0 mi North 9.2 mph - N/A   Overcast
6:56 PM 42.1 °F 37.1 °F 34.0 °F 73% 30.15 in 10.0 mi NNW 8.1 mph - N/A   Overcast
7:56 PM 41.0 °F 33.9 °F 34.0 °F 76% 30.14 in 10.0 mi North 12.7 mph 19.6 mph N/A   Overcast
8:56 PM 41.0 °F 35.2 °F 34.0 °F 76% 30.16 in 10.0 mi North 9.2 mph - N/A   Overcast
9:56 PM 41.0 °F 36.4 °F 34.0 °F 76% 30.17 in 10.0 mi NNE 6.9 mph - N/A   Overcast
10:56 PM 41.0 °F 36.4 °F 34.0 °F 76% 30.18 in 10.0 mi North 6.9 mph - N/A   Overcast
11:56 PM 39.9 °F 34.5 °F 33.1 °F 77% 30.16 in 10.0 mi NNE 8.1 mph - N/A   Scattered Clouds